RH
63 41 34 31 32 30 24 14 9 10 13 12 14 17 28 31 38 58 33 44 47 53 60 61 70 68 68 66 65 60 58 59 60 60 60 60 60 60 60 60 60 59 59 60 61 61 62 62 63
24 23 25 22 32 28 15 11 12 12 11 12 13 14 19 37 33 38 39 44 45 50 60 63 70 69 67 64 62 59 57 60 60 59 59 59 58 59 59 59 59 59 59 59 61 59 60 61 63
43 25 21 24 26 24 16 12 10 10 11 11 13 16 22 37 36 37 36 45 47 49 55 62 72 70 66 64 61 60 59 60 58 57 58 58 55 58 55 56 57 56 56 58 55 56 61 63 64
26 21 19 25 20 13 11 10 8 8 11 12 11 27 27 25 31 33 37 42 46 50 59 70 74 70 66 60 58 59 60 61 56 57 56 55 57 55 53 48 51 52 52 54 54 58 63 61 60
18 17 20 18 14 10 7 7 6 6 6 9 12 28 34 29 30 34 39 41 49 60 63 63 76 69 60 61 58 61 61 59 54 57 56 55 53 50 54 46 46 47 48 52 60 62 60 57 55
18 15 20 15 10 6 5 7 7 7 6 10 11 25 32 29 35 36 37 43 53 61 63 64 68 66 64 60 62 62 62 54 56 56 53 51 49 52 45 44 50 48 51 52 57 58 56 55 52
18 16 15 12 10 7 7 7 7 7 8 12 10 26 34 33 34 34 38 46 60 64 68 65 61 61 66 67 64 62 59 54 56 53 50 47 47 45 45 48 53 51 48 44 53 56 56 57 49
12 13 15 10 9 6 7 6 6 7 9 9 11 23 39 35 34 34 36 59 63 68 69 67 64 58 62 64 66 62 56 54 56 50 48 45 43 44 43 45 49 41 46 46 51 56 55 56 49
9 15 13 9 6 7 6 6 6 7 7 13 20 22 27 32 33 37 41 53 63 64 62 66 61 61 62 60 62 60 56 56 56 52 49 50 53 52 49 51 42 39 39 41 53 55 55 52 49
10 13 11 7 6 7 6 7 6 6 14 19 25 24 30 33 36 40 43 54 60 62 57 56 61 60 60 44 67 67 57 57 61 57 64 62 58 57 36 43 41 41 41 44 55 56 53 53 51
7 10 8 6 6 6 7 6 10 12 17 19 21 30 34 35 38 38 39 54 55 47 48 46 62 64 55 57 59 54 55 58 60 65 70 63 58 64 58 56 54 63 52 55 57 60 59 50 54
7 6 6 5 6 7 8 8 15 16 18 18 18 22 32 34 36 36 36 53 48 46 43 42 44 62 65 51 53 54 51 59 61 64 65 70 68 67 63 54 56 58 59 53 55 53 53 49 50
6 6 6 6 6 8 8 11 15 17 14 16 18 20 30 32 32 31 31 36 42 42 44 43 48 60 60 63 60 60 60 56 58 64 68 67 67 66 61 60 58 60 58 57 57 56 53 53 51
6 6 7 6 7 9 10 12 13 14 13 16 19 21 26 28 29 30 31 36 41 36 40 48 47 60 57 61 59 62 60 62 58 61 61 68 69 73 68 66 64 63 61 59 59 59 61 63 58
8 8 7 6 8 10 10 12 18 13 12 15 18 21 23 26 27 30 33 39 34 30 34 50 56 61 64 62 60 60 59 49 58 59 61 59 66 71 71 70 70 66 66 62 61 61 61 62 54
9 10 12 8 9 10 9 22 18 15 14 15 17 22 25 27 28 29 36 30 26 25 38 44 35 54 61 63 63 58 54 59 56 58 60 61 64 68 71 70 70 67 70 65 65 66 64 63 60
12 15 12 12 10 10 9 21 20 18 18 20 19 22 26 29 29 35 31 26 23 28 40 43 48 54 59 61 61 62 61 61 59 60 58 56 58 59 67 67 68 69 66 67 66 65 66 66 65
16 13 10 8 12 12 11 17 22 21 22 24 21 22 26 30 32 36 34 37 31 31 41 45 50 58 57 62 65 62 62 63 62 58 54 55 55 54 60 65 69 69 65 65 68 69 66 65 64
14 13 12 9 12 13 13 15 26 24 26 28 24 26 32 39 42 40 50 50 52 58 58 59 62 68 70 72 64 65 61 62 64 61 58 60 60 58 65 66 64 66 66 67 68 73 72 69 66
16 14 13 12 10 12 12 30 28 28 29 29 27 34 40 43 53 51 55 56 59 63 62 60 62 65 63 64 60 62 63 60 59 60 54 56 59 64 61 65 65 63 65 69 73 72 74 72 70
16 17 23 20 12 10 11 45 42 32 29 30 32 34 36 44 47 52 54 59 58 65 68 58 58 60 59 60 61 63 63 64 57 55 55 53 53 53 62 64 66 68 70 70 71 73 74 78 69
20 15 20 19 16 19 14 86 63 41 37 36 37 38 38 40 42 42 45 49 55 54 55 53 51 50 53 58 58 62 58 58 52 52 50 54 56 56 55 60 65 70 69 69 69 61 72 73 71
22 20 22 22 22 24 17 33 74 50 38 39 42 39 40 37 38 41 43 43 36 44 48 51 50 45 47 51 54 54 55 50 47 48 57 61 60 60 58 61 63 69 69 69 71 73 74 67 73
18 22 23 23 24 44 49 67 81 43 39 36 37 40 40 38 39 38 39 38 40 39 47 50 45 37 42 47 51 57 61 59 52 51 52 48 48 52 56 57 64 66 63 65 65 67 68 71 72
24 31 62 69 92 83 65 69 62 38 36 36 36 36 39 40 36 34 32 33 37 40 45 44 38 36 39 46 49 52 56 59 58 54 52 55 52 56 56 61 64 62 68 66 64 67 65 66 74
29 37 68 75 79 98 55 99 79 38 30 29 30 30 29 31 33 32 33 36 35 38 42 44 36 35 35 41 48 51 53 46 48 53 53 56 64 76 80 79 78 77 84 82 75 64 70 65 75
36 50 41 58 54 78 73 93 81 62 34 31 29 29 31 30 32 32 33 39 39 43 44 50 43 33 35 40 49 51 54 54 51 61 69 76 78 77 81 89 93 92 89 93 92 96 86 84 84
38 41 64 67 95 93 74 70 99 56 38 33 34 36 34 32 31 33 34 36 34 40 45 49 46 37 38 46 48 42 52 54 57 59 70 79 87 91 89 89 88 89 94 98 99 100 99 100 99
55 72 73 80 100 98 80 95 72 48 39 38 37 34 36 36 36 34 32 29 28 34 40 45 43 38 44 47 49 58 59 62 65 71 83 88 90 90 91 89 90 92 98 99 100 100 100 100 100
53 71 87 100 100 100 92 94 57 40 35 33 34 31 33 33 33 30 28 27 28 30 31 33 44 43 45 49 52 58 62 69 78 84 82 84 86 87 89 93 91 92 97 96 98 98 98 100 99
Wind_Speed
7 9 8 9 8 9 17 14 19 13 16 13 12 7 14 14 9 11 15 22 23 20 17 17 19 19 19 18 16 15 14 14 13 12 12 12 12 12 13 12 11 11 11 11 11 11 12 12 12
10 11 10 7 11 14 11 11 2 14 14 8 3 3 6 9 12 17 13 22 21 19 16 16 20 20 18 18 16 15 14 14 12 11 11 11 11 10 11 11 11 10 11 10 12 11 11 12 12
10 15 9 8 13 16 18 12 11 11 10 1 2 11 8 8 14 13 18 22 20 17 15 16 19 19 18 17 15 14 14 13 11 10 10 10 10 9 10 10 10 9 9 10 10 10 11 12 13
7 7 8 9 16 19 18 7 13 7 10 8 4 12 7 6 10 12 21 21 18 16 16 17 18 18 17 16 14 14 13 12 10 9 9 8 8 8 9 7 8 8 8 8 8 8 12 11 12
10 8 11 17 21 23 9 9 10 11 6 7 5 12 9 13 16 20 20 19 17 18 15 16 18 16 16 16 14 13 12 10 8 9 9 8 8 5 7 6 6 7 7 8 8 10 9 10 12
9 10 12 14 18 15 10 15 12 11 10 8 6 15 9 14 18 17 17 16 21 17 14 15 18 17 15 15 14 12 11 10 8 8 8 7 6 7 6 5 6 6 7 6 6 6 7 9 11
11 12 16 19 19 21 7 10 5 9 10 14 7 10 13 16 18 17 15 16 19 17 14 12 12 13 15 14 14 12 11 9 9 8 7 6 6 5 4 4 6 6 5 3 2 3 5 7 9
13 12 19 17 17 18 12 6 4 5 7 6 9 6 11 18 18 16 16 18 18 13 12 12 12 11 10 9 14 12 10 10 9 7 6 5 5 6 5 4 5 4 4 3 2 3 4 7 9
17 11 13 21 15 16 16 16 12 4 4 6 10 9 20 21 19 15 15 18 14 10 11 10 10 10 10 9 10 11 11 9 8 7 6 5 5 7 8 8 5 3 1 2 1 2 7 10 11
14 11 19 21 16 14 16 15 14 8 18 13 13 13 20 20 17 17 16 16 14 12 11 10 9 9 10 10 9 7 8 7 7 8 8 6 2 4 4 6 7 6 4 5 6 7 9 10 6
16 15 17 17 12 12 12 13 13 11 13 10 8 14 15 18 16 16 16 18 15 10 9 11 7 7 8 11 7 6 6 6 6 6 8 3 2 4 4 5 4 4 8 5 7 6 6 2 4
17 15 12 13 10 11 9 11 14 12 8 8 4 12 15 16 15 15 15 19 14 14 12 12 9 5 5 7 7 7 6 5 4 5 5 2 3 4 3 2 2 3 5 2 4 2 1 3 3
12 12 12 5 4 3 5 8 10 9 6 8 8 15 15 14 14 13 13 15 17 12 12 12 10 5 3 3 3 2 2 3 3 5 6 3 3 2 1 2 1 2 3 2 2 3 3 0 3
14 13 11 9 6 5 8 6 4 8 1 7 7 3 11 11 12 12 11 12 13 12 12 10 11 6 3 4 3 2 2 1 2 2 4 6 2 3 3 3 3 3 3 3 2 2 2 3 4
7 12 13 13 5 3 2 1 10 6 10 6 6 5 2 7 10 9 8 11 9 11 11 9 9 7 5 5 3 2 2 3 2 4 5 6 5 4 4 3 4 4 3 3 2 2 3 4 5
14 15 15 11 10 7 5 10 10 9 8 11 4 8 3 2 5 8 12 9 8 11 12 7 7 7 3 3 2 2 4 3 3 3 3 7 7 7 5 4 4 4 3 3 3 3 4 4 4
11 11 7 8 9 2 3 10 11 13 13 13 12 7 6 4 4 11 10 7 8 14 12 7 3 7 5 4 2 4 5 3 3 4 4 4 5 6 5 4 4 4 4 4 4 4 4 3 3
14 15 14 13 10 5 9 9 15 13 12 10 10 6 4 6 5 10 9 17 13 12 8 6 5 7 5 4 3 4 4 4 5 4 5 6 4 5 4 4 5 5 4 4 4 5 4 4 4
13 14 14 12 10 6 9 3 17 14 13 13 12 12 15 18 12 14 18 19 15 14 10 8 4 1 3 6 7 4 8 5 3 3 6 4 4 4 5 4 4 4 5 5 6 4 6 4 3
13 16 15 11 11 5 9 19 16 13 14 14 12 15 16 15 11 13 14 14 11 8 5 5 4 6 7 2 4 5 2 3 4 5 8 11 9 7 6 5 5 5 4 5 6 6 4 3 5
12 12 13 12 14 14 10 16 13 10 15 15 15 15 14 13 10 11 10 8 7 3 2 5 6 7 9 6 3 3 3 3 7 9 7 4 5 5 6 7 6 6 4 4 5 5 7 5 4
12 11 13 15 13 11 4 6 3 10 13 15 11 11 11 11 9 6 6 3 5 5 3 6 6 5 4 4 3 6 7 9 6 6 6 5 6 6 6 5 6 6 5 6 6 6 4 5 6
12 15 17 17 14 11 15 6 6 9 15 14 11 9 8 7 6 3 3 2 2 1 1 4 6 8 7 6 5 4 6 6 7 7 8 7 6 7 7 7 8 8 6 7 7 6 5 6 4
7 16 18 16 13 8 11 6 5 11 11 12 13 11 8 7 5 4 3 3 3 4 5 6 7 8 8 7 7 7 7 7 7 7 8 8 8 6 6 7 6 7 10 10 9 9 9 7 5
14 15 6 7 4 5 3 15 9 13 12 11 11 9 7 4 3 5 8 8 8 8 7 7 10 11 9 8 7 7 7 7 8 8 6 7 5 5 7 8 8 7 6 8 10 10 10 9 7
14 13 5 5 6 3 7 6 4 11 11 9 6 5 7 8 6 7 8 7 8 9 7 7 9 11 11 9 8 7 7 6 6 5 6 5 6 7 11 10 10 10 9 11 9 9 8 10 8
7 10 3 5 9 7 4 2 9 12 6 5 5 8 8 9 10 10 10 8 8 6 7 7 8 10 10 9 6 6 6 6 7 8 8 5 7 9 13 13 13 12 12 10 9 7 6 5 8
8 12 5 6 4 4 5 7 5 7 6 11 10 10 12 12 11 10 9 9 8 7 6 7 7 9 8 7 6 7 7 9 9 10 10 10 10 9 9 10 10 9 9 8 7 3 4 1 3
9 6 6 5 3 2 3 3 2 8 11 9 8 8 8 9 9 9 10 10 9 8 7 7 8 9 9 9 9 9 11 11 10 9 9 8 8 9 10 10 10 9 8 8 6 6 3 4 4
17 7 5 3 3 3 2 2 6 6 9 10 9 10 9 8 9 10 10 10 10 10 10 10 9 9 9 10 10 14 11 11 9 9 8 9 10 10 10 9 10 9 7 8 9 9 8 8 9
Wind_Direction
185 210 227 255 256 229 264 277 6 37 73 34 35 22 96 37 29 106 137 103 116 126 130 138 137 132 131 126 121 116 113 106 97 94 90 84 80 76 66 62 53 50 49 47 48 42 39 38 33
230 212 232 282 251 279 288 87 192 48 43 39 74 308 129 72 96 121 129 122 123 128 137 135 136 136 132 127 126 119 116 106 102 98 95 91 85 81 70 64 58 51 47 45 48 43 40 41 35
269 271 269 236 249 260 276 90 359 57 107 51 92 56 43 95 122 148 126 119 129 139 134 134 136 133 132 128 126 122 115 116 110 106 102 101 88 91 72 63 60 53 47 46 46 46 52 44 32
244 223 242 254 261 272 287 328 3 27 117 127 301 91 76 79 128 123 129 133 130 123 124 134 137 135 134 131 134 124 120 114 111 108 105 94 81 89 78 61 62 55 46 46 42 59 45 38 28
238 269 263 260 263 263 0 18 7 324 315 92 101 88 93 97 102 134 132 134 140 118 130 136 136 141 137 137 130 128 125 116 117 108 101 103 94 84 91 63 60 55 46 42 61 52 43 31 21
251 259 279 274 302 319 6 60 30 328 315 125 168 120 113 118 134 141 138 139 118 130 133 138 140 138 144 139 130 129 126 123 121 135 104 101 82 72 71 67 59 66 40 43 51 48 36 22 11
257 269 282 294 302 292 70 66 14 344 330 27 32 76 128 143 145 144 136 119 116 119 130 138 142 146 137 132 135 136 135 134 120 108 106 113 115 106 94 77 68 45 14 22 36 48 11 355 348
248 272 292 288 277 301 78 78 28 356 15 349 39 86 159 146 146 143 130 111 120 138 151 151 144 149 143 142 142 144 145 145 132 122 129 141 162 161 156 143 99 47 21 356 36 33 333 318 314
273 279 274 273 310 348 9 8 3 98 251 64 54 53 131 139 144 144 137 126 127 142 149 147 152 154 149 144 150 150 151 153 148 154 185 205 218 189 155 107 126 117 48 305 176 266 282 290 288
245 252 266 295 345 357 355 345 319 327 43 78 72 84 122 146 153 153 154 126 132 160 150 142 157 154 150 152 140 163 163 174 191 186 181 218 148 76 58 155 171 178 198 213 214 240 264 281 264
253 248 276 296 343 1 337 301 40 20 42 22 16 129 144 158 162 164 167 134 142 171 158 153 155 148 178 125 172 172 174 184 197 189 193 183 68 169 202 167 183 176 209 216 201 215 238 259 26
239 256 278 309 12 353 326 319 72 53 34 23 340 163 161 170 174 176 173 143 165 186 154 148 152 160 214 151 189 176 180 179 158 169 151 271 193 201 192 268 0 209 166 182 205 267 50 96 252
285 285 268 307 322 82 330 43 86 59 20 40 9 136 157 178 181 185 175 151 157 155 146 147 142 169 218 191 229 153 124 149 186 137 162 200 307 324 285 275 329 325 328 308 224 248 264 29 271
297 323 302 298 269 126 289 119 352 54 353 56 42 99 160 184 187 187 167 150 141 142 139 135 139 154 127 272 82 59 7 79 86 299 163 165 190 303 314 298 256 233 222 243 233 291 347 347 333
314 275 260 224 180 156 67 187 72 8 347 99 101 64 145 179 182 176 151 116 134 138 135 125 129 147 161 250 117 267 250 205 269 213 185 169 180 221 235 267 269 272 270 241 223 250 262 231 243
247 246 260 188 141 126 201 104 83 18 21 9 83 97 359 142 156 140 102 115 130 136 122 136 164 150 180 201 201 259 252 206 250 268 233 191 187 193 213 244 258 263 248 238 235 212 229 240 241
218 299 232 153 115 346 184 136 94 43 30 12 349 116 118 130 175 100 104 122 139 118 122 144 132 141 175 230 300 250 275 297 271 272 280 255 203 199 196 216 257 282 281 249 232 239 208 248 268
333 331 327 317 115 95 328 97 81 54 33 18 3 42 93 127 132 96 83 54 51 93 104 91 77 42 32 345 306 251 272 249 226 228 244 251 235 221 196 209 228 230 246 267 253 223 229 213 238
313 312 308 299 94 28 8 2 66 63 45 28 24 38 46 68 58 70 67 62 52 45 36 35 31 245 221 220 228 267 249 248 256 249 252 259 243 216 222 219 228 241 234 236 250 242 218 239 240
324 304 290 294 43 7 302 85 74 64 63 49 34 76 78 62 57 64 67 71 57 47 28 346 291 244 223 211 237 256 314 307 312 314 297 277 253 240 220 216 222 239 258 262 227 223 252 238 207
324 334 351 343 325 299 251 73 59 61 67 63 57 56 63 114 128 105 84 57 42 44 307 280 275 252 248 253 259 315 319 323 288 269 270 289 286 258 217 211 209 213 225 247 249 230 211 223 252
308 8 327 307 301 286 293 82 135 78 83 72 68 75 74 86 84 85 112 155 204 227 241 237 272 294 269 271 255 251 259 264 281 290 293 298 301 290 275 252 225 209 205 218 236 246 239 212 223
302 331 302 286 268 269 273 204 34 328 78 82 68 73 76 72 77 81 137 23 20 293 69 3 345 313 306 309 310 304 298 296 300 295 293 299 296 290 271 251 236 220 210 211 216 242 238 226 214
325 297 296 269 253 233 36 73 54 48 37 63 78 76 65 68 72 70 64 14 13 1 15 346 329 315 324 323 318 311 296 291 291 291 291 282 268 265 277 268 254 236 219 212 208 213 222 237 224
330 348 342 23 54 12 319 83 40 39 50 53 58 70 81 92 19 356 4 357 359 354 346 341 334 315 317 313 306 311 314 307 296 292 295 306 302 306 308 325 330 320 298 220 206 206 212 218 212
21 22 25 333 26 37 356 51 29 0 52 58 85 73 49 32 15 4 8 354 353 339 347 339 321 322 320 322 325 318 319 306 309 312 305 308 358 5 344 335 331 327 340 343 322 213 204 206 207
345 16 37 332 360 82 43 26 49 337 87 89 39 40 28 14 16 2 354 3 347 346 347 330 331 320 325 323 319 317 308 320 305 357 20 343 333 321 316 309 286 286 299 314 329 333 262 202 192
36 24 15 15 42 86 118 66 32 10 30 44 31 19 16 2 355 357 359 353 351 357 333 336 329 325 324 331 329 339 345 354 341 327 324 310 313 286 274 270 270 268 254 244 266 285 352 81 72
11 24 6 96 65 53 103 47 218 349 32 34 27 21 4 354 359 352 3 355 350 341 342 336 340 338 354 347 355 6 344 328 320 313 315 303 282 269 264 260 261 255 240 235 217 214 200 206 123
73 44 59 344 48 31 62 5 337 20 30 23 21 2 5 359 15 14 358 349 347 345 355 350 346 358 345 11 346 340 334 344 343 324 314 298 287 278 266 253 249 245 229 230 222 227 222 214 207